SCP
0 0 0 -0 -0 0 0 0 0 0 -0 0 -0 0 0 0 0 0 0 0 0 1 2 2 2 2 2 2 2 1 1 1 0 -0 -0 -0 -0 -0 -0 -0 -0 -0 -0 -0 -0 -0 -0 -0 -0
0 0 0 -0 0 0 0 0 0 0 0 0 0 0 0 -0 -0 0 0 0 0 0 1 1 2 2 2 2 2 2 1 0 0 0 0 0 -0 0 -0 -0 -0 -0 -0 -0 -0 -0 -0 0 0
0 0 -0 -0 0 0 0 0 0 0 0 0 0 0 0 0 0 0 0 0 0 0 1 1 1 2 1 2 0 1 1 1 0 0 0 0 0 0 -0 -0 -0 -0 -0 -0 -0 -0 0 0 -0
0 -0 -0 0 0 0 0 0 0 0 0 0 0 0 0 0 0 0 0 0 0 0 1 1 1 2 1 1 2 2 1 0 0 0 0 0 0 0 0 -0 -0 0 -0 -0 -0 0 0 -0 -0
0 -0 0 0 0 0 0 0 0 0 0 0 0 0 0 0 0 0 0 0 0 0 0 0 0 1 1 1 1 0 1 1 0 0 0 0 0 0 0 -0 -0 0 -0 -0 -0 0 -0 -0 -0
0 -0 0 0 0 0 0 0 0 0 0 0 0 0 0 0 0 0 -0 -0 -0 -0 0 0 0 0 0 1 1 1 1 1 0 0 0 0 0 0 0 -0 -0 -0 -0 -0 0 -0 -0 -0 0
0 -0 0 0 0 0 0 0 0 0 0 0 0 0 0 0 0 0 0 0 0 0 0 0 0 0 0 0 0 0 1 1 0 0 0 0 0 0 0 0 0 0 -0 -0 -0 -0 0 0 0
0 -0 0 0 0 0 0 0 0 0 0 0 0 0 0 0 0 0 0 0 0 0 0 0 0 0 0 0 0 0 1 1 0 1 1 0 0 0 0 0 0 0 0 0 -0 0 0 -0 0
0 0 0 0 0 0 0 0 0 0 0 0 0 0 0 0 0 0 0 0 0 0 0 0 0 -0 0 0 0 0 0 1 1 1 1 0 0 0 0 0 0 0 0 0 0 0 0 0 0
0 0 0 0 0 0 0 0 0 0 0 0 0 0 0 0 0 0 0 0 0 0 0 -0 -0 -0 -0 -0 0 0 0 0 1 1 0 0 0 0 0 0 0 0 0 0 0 0 0 0 0
0 0 0 0 0 0 0 0 0 0 0 0 0 0 0 0 0 0 0 0 0 0 0 0 0 -0 -0 -0 0 0 0 0 0 0 0 0 0 0 0 0 0 0 0 0 0 0 0 0 0
0 0 0 0 0 0 0 0 0 0 0 0 0 0 0 0 0 0 0 0 0 0 0 0 0 -0 -0 -0 -0 0 0 0 0 0 0 0 0 0 0 0 0 0 0 0 0 0 0 0 0
0 0 0 -0 0 -0 0 0 0 0 0 0 0 0 0 0 0 0 0 0 0 0 0 0 0 -0 -0 -0 0 0 -0 -0 0 0 0 0 0 0 0 0 0 0 -0 0 0 0 0 0 0
0 0 -0 -0 0 -0 -0 0 0 0 0 0 0 0 0 0 0 -0 0 0 0 0 0 0 0 0 0 -0 0 -0 0 -0 0 0 0 0 0 0 0 0 0 0 -0 0 0 0 0 0 0
0 -0 -0 -0 0 0 -0 0 -0 0 0 0 0 0 0 0 0 -0 0 0 0 0 0 0 0 0 0 0 0 -0 0 0 0 0 0 0 0 0 0 0 0 0 0 0 0 0 0 0 0
0 -0 0 -0 0 0 0 -0 -0 -0 -0 0 0 0 0 0 -0 -0 -0 0 0 0 0 0 0 0 0 0 0 0 0 0 0 0 0 0 0 0 0 0 0 0 0 0 0 0 0 0 0
0 0 0 -0 0 0 0 -0 -0 -0 -0 -0 0 0 0 0 0 0 0 -0 -0 0 0 0 0 0 0 0 0 0 0 0 0 0 0 0 0 0 0 0 0 0 0 0 0 0 0 0 0
0 0 0 0 0 0 0 -0 0 -0 -0 -0 -0 -0 -0 -0 0 0 0 -0 -0 -0 -0 0 0 0 0 0 0 0 0 0 0 0 0 0 0 0 0 0 0 0 0 0 0 0 0 0 0
0 0 0 -0 0 0 0 0 -0 -0 0 -0 -0 -0 -0 -0 -0 -0 -0 -0 -0 -0 0 -0 0 0 0 0 0 0 0 0 0 0 0 0 0 0 0 0 0 0 0 0 0 0 0 0 0
0 0 0 0 0 0 0 -0 0 -0 -0 -0 -0 -0 -0 0 -0 -0 -0 -0 -0 -0 0 0 -0 0 0 0 0 0 0 0 0 0 0 0 0 0 0 0 0 0 0 0 0 0 0 0 0
0 0 0 0 0 0 0 -0 -0 0 0 0 -0 -0 -0 -0 -0 -0 -0 -0 -0 -0 -0 0 0 0 0 0 0 0 0 0 0 0 0 -0 -0 0 0 0 0 0 0 0 0 0 0 0 0
0 0 0 0 0 0 0 0 -0 -0 0 -0 -0 -0 -0 -0 -0 -0 -0 -0 -0 -0 -0 -0 0 0 0 0 0 0 -0 -0 -0 -0 -0 -0 -0 -0 -0 -0 0 0 0 0 0 0 0 0 0
0 0 0 0 0 0 0 0 -0 0 -0 -0 -0 -0 -0 -0 -0 -0 -0 -0 -0 -0 -0 -0 -0 -0 0 0 -0 -0 -0 -0 -0 -0 -0 -0 -0 -0 -0 0 -0 -0 0 0 0 0 0 0 0
0 0 0 0 0 0 0 0 -0 0 0 -0 0 -0 -0 -0 -0 -0 -0 -0 -0 -0 -0 -0 -0 -0 -0 0 -0 -0 -0 -0 -0 -0 -0 -0 -0 -0 -0 -0 -0 0 0 0 0 0 0 0 0
0 0 0 0 0 0 0 0 0 0 -0 -0 0 -0 -0 -0 -0 -0 -0 -0 -0 -0 -0 -0 -0 -0 -0 -0 0 0 0 0 -0 -0 -0 0 -0 -0 -0 -0 0 0 0 0 0 0 0 0 0
0 0 0 0 0 0 0 0 0 0 -0 -0 0 0 0 -0 -0 -0 -0 -0 -0 -0 -0 -0 -0 -0 -0 -0 -0 0 0 0 -0 0 -0 -0 -0 -0 -0 -0 0 0 0 0 0 0 0 0 0
0 0 0 0 0 0 0 0 0 0 -0 -0 -0 0 -0 -0 -0 -0 -0 -0 -0 -0 -0 -0 -0 -0 -0 -0 -0 -0 -0 -0 -0 0 -0 -0 -0 -0 -0 0 0 0 0 0 0 0 0 0 0
0 0 0 0 0 0 0 0 0 0 0 0 0 0 -0 -0 -0 -0 -0 -0 -0 -0 -0 -0 -0 -0 0 0 -0 0 0 -0 0 0 0 0 -0 0 0 0 0 0 0 0 0 0 0 0 0
0 0 0 0 0 0 0 0 0 0 0 0 0 0 0 0 -0 -0 -0 -0 -0 -0 -0 -0 -0 -0 0 -0 -0 -0 0 0 0 0 0 0 0 0 0 0 0 0 0 0 0 0 0 0 0
0 0 0 0 0 0 0 0 0 0 0 0 0 0 0 0 0 -0 -0 -0 -0 -0 -0 -0 -0 -0 -0 -0 0 0 0 0 0 0 0 0 0 0 0 0 0 0 0 0 0 0 0 0 0
Wind_Speed_500mb
5 4 9 8 8 9 7 10 6 16 10 5 6 15 16 10 1 5 15 15 33 53 67 66 65 70 70 60 58 61 41 41 51 56 57 60 61 65 64 63 62 63 60 58 56 54 53 55 55
2 4 4 7 8 4 10 9 10 8 11 12 5 4 5 6 9 9 10 30 42 57 70 70 73 70 68 63 47 46 52 52 54 58 63 68 68 68 67 66 66 66 64 59 53 48 51 54 53
4 2 4 8 6 6 7 9 9 10 14 9 6 6 5 5 5 11 15 25 51 60 69 70 68 66 61 58 61 47 48 57 59 65 68 70 70 70 69 69 68 66 64 59 54 49 53 51 49
5 4 10 6 9 15 14 15 3 6 14 7 5 6 6 10 3 9 16 26 54 59 62 66 63 72 71 71 66 59 62 66 64 66 73 74 73 71 72 70 67 64 65 61 50 43 42 43 44
4 4 7 3 11 11 11 9 7 4 8 10 10 4 4 8 5 12 21 34 51 57 56 48 57 56 52 64 60 59 60 68 66 69 75 77 77 75 71 67 66 65 64 57 44 39 37 37 38
6 4 7 5 10 11 10 2 6 4 4 10 6 4 6 4 6 14 23 33 44 47 61 63 74 50 43 84 75 75 72 72 72 70 76 77 77 74 68 66 66 65 61 54 42 41 42 40 33
11 7 8 7 11 12 6 12 6 6 12 9 6 5 6 2 10 9 18 30 34 39 42 52 77 57 49 70 86 71 78 74 73 71 76 76 75 70 68 66 65 63 59 51 41 42 42 36 30
9 7 3 9 4 11 10 9 12 27 14 12 7 9 4 3 4 6 13 17 23 35 28 25 51 64 55 97 73 64 64 73 71 72 75 75 73 69 66 65 62 58 57 51 43 43 38 31 28
12 7 5 10 4 10 13 7 15 5 6 9 8 14 13 3 8 9 13 22 27 31 28 41 29 35 44 60 75 61 67 74 72 73 75 77 74 68 64 63 60 56 53 51 46 36 34 25 19
9 7 13 14 10 12 10 17 18 5 5 11 10 12 5 3 4 5 7 24 22 24 38 37 24 50 41 59 66 66 62 57 66 74 72 74 72 66 61 59 55 51 48 48 46 36 29 24 18
10 10 9 38 29 28 14 7 11 11 11 11 13 17 9 3 2 7 8 14 23 32 49 51 63 60 60 67 97 86 73 67 59 68 69 74 73 67 61 58 51 46 42 43 43 39 31 25 20
3 22 15 22 15 24 11 11 10 19 11 8 6 10 8 12 13 12 18 23 36 40 44 43 49 52 65 67 70 90 93 88 72 73 73 74 73 66 59 53 47 39 41 37 34 31 26 17 17
9 9 16 31 12 26 22 17 10 13 12 8 13 17 16 14 17 19 18 21 28 34 45 46 61 57 67 88 97 96 87 83 87 75 71 73 72 66 57 48 41 39 37 29 29 27 19 14 11
7 17 32 22 23 25 20 8 1 16 20 18 15 12 16 20 15 18 19 27 32 40 45 42 57 59 74 81 77 87 87 88 82 78 74 72 66 62 55 45 39 37 31 26 22 19 17 16 10
9 10 15 14 17 13 15 3 16 25 31 25 22 18 16 16 16 12 12 22 26 32 36 45 47 69 75 74 78 85 86 83 81 79 74 69 63 58 49 39 39 32 30 25 25 20 15 18 14
9 1 3 5 12 10 20 22 12 34 38 31 25 19 17 14 15 9 12 21 27 27 42 57 59 71 78 77 86 80 83 82 79 75 68 66 59 47 41 39 35 33 31 24 19 15 14 19 18
7 10 9 16 5 7 8 16 11 44 41 36 33 26 20 11 12 9 14 22 28 30 32 47 75 69 71 83 74 78 81 81 78 72 67 65 54 46 40 37 33 32 26 22 18 21 21 19 19
10 8 4 7 10 3 9 26 2 41 39 38 39 33 22 15 11 10 13 21 23 26 28 33 50 75 78 90 89 81 80 76 78 70 69 62 55 48 41 29 29 26 26 28 26 27 28 28 24
4 6 10 13 18 8 26 17 16 28 25 30 41 38 30 23 16 16 19 20 25 30 29 27 48 88 86 85 88 87 83 81 81 78 73 63 45 45 39 33 29 27 30 33 35 35 38 38 34
10 10 22 19 19 14 16 22 11 19 29 46 50 48 42 32 28 26 24 25 29 31 37 40 42 71 80 84 83 94 86 87 77 77 80 71 54 42 39 38 34 34 33 39 44 45 45 43 44
14 14 20 15 17 9 1 15 7 10 16 36 48 53 46 44 39 37 33 32 32 30 31 45 54 62 71 79 83 83 78 83 79 82 86 83 78 52 42 43 40 41 43 46 49 54 55 54 51
15 20 22 16 4 10 9 9 10 6 13 16 38 52 58 57 50 44 40 39 38 34 37 45 50 62 65 72 72 79 85 89 94 82 83 90 86 76 68 54 47 50 51 56 57 58 62 61 57
19 11 18 19 13 6 4 4 13 7 11 22 30 57 67 68 62 55 50 45 38 37 40 44 47 54 61 65 72 80 87 91 91 86 92 84 93 87 71 60 57 47 53 58 59 59 65 67 58
20 9 6 0 8 5 11 11 10 10 15 11 25 52 71 73 71 64 54 54 47 44 46 49 54 56 61 68 72 75 77 90 94 92 98 98 91 90 82 73 65 56 61 63 61 61 69 65 61
9 4 5 6 1 11 10 5 15 16 23 24 24 54 73 78 77 75 73 70 64 60 56 58 63 68 69 72 78 79 80 81 84 79 81 82 86 90 86 78 73 74 72 62 59 63 64 64 59
13 18 11 12 7 9 2 10 11 15 24 26 31 53 67 71 81 85 85 79 75 72 70 69 68 72 77 78 80 79 79 82 81 80 81 86 90 87 80 73 71 73 70 57 54 57 62 48 52
8 10 14 11 6 4 8 12 14 13 19 23 36 34 59 72 82 89 92 90 86 84 83 82 81 80 84 82 81 84 86 89 90 88 88 86 83 85 84 81 73 73 62 66 63 63 55 50 57
14 10 4 4 9 8 5 7 11 16 11 10 13 29 59 71 74 82 88 94 95 92 88 86 89 93 92 93 94 95 94 94 94 92 90 87 81 84 85 82 81 77 64 66 61 60 52 59 59
4 6 4 6 8 12 4 11 14 16 15 9 3 8 33 56 69 76 84 91 94 93 95 95 96 97 96 101 103 102 101 97 99 97 92 91 85 86 89 81 81 86 76 75 65 56 56 61 55
7 12 17 11 8 4 7 16 10 17 12 13 10 6 17 37 62 73 72 80 88 94 97 99 102 105 105 107 105 107 106 102 103 102 99 84 89 79 91 80 89 87 91 77 68 58 59 60 59
Wind_Direction_500mb
59 21 348 21 43 58 276 264 255 310 328 347 14 127 137 142 206 174 165 185 182 177 176 178 177 170 167 168 180 173 178 183 172 167 158 150 146 141 140 137 133 132 130 128 124 121 115 108 98
50 12 28 71 81 24 277 263 302 267 302 122 50 48 131 143 135 138 151 168 182 180 179 180 179 173 170 166 167 174 174 179 168 164 156 148 143 140 138 134 134 131 129 126 123 118 111 108 97
104 118 63 90 122 198 243 235 281 293 34 338 325 351 120 115 146 178 149 172 179 182 181 183 182 179 173 172 175 177 178 177 166 163 154 146 143 140 136 134 132 131 128 124 120 115 110 107 100
104 109 76 99 235 249 221 265 288 323 295 347 165 247 124 147 158 192 174 185 185 189 184 190 198 204 200 181 175 170 191 175 167 162 152 147 142 138 137 135 133 133 127 123 121 117 113 112 105
110 115 63 324 254 254 243 213 190 340 332 308 316 297 115 195 167 204 192 196 200 191 194 200 202 189 202 190 186 179 182 174 165 160 151 147 142 140 136 133 133 133 129 124 120 115 120 121 111
93 94 50 290 256 268 302 219 68 340 280 251 215 280 228 335 266 214 206 201 196 203 215 222 204 204 229 217 191 182 177 171 164 159 153 146 143 139 134 132 132 133 131 127 126 119 119 127 118
124 88 205 246 270 310 180 98 121 221 249 240 202 223 206 257 301 203 202 207 205 211 215 214 208 210 211 173 169 165 176 168 163 159 153 148 143 137 134 132 133 138 137 133 128 119 121 124 120
151 98 149 239 249 279 197 151 161 206 222 180 191 242 268 344 8 118 176 206 201 195 191 180 190 196 167 179 152 162 164 167 164 158 155 148 143 139 135 133 132 135 139 138 133 125 121 118 112
178 77 225 254 244 287 162 183 215 230 257 200 232 247 266 103 103 125 175 171 184 193 179 168 155 161 137 127 144 155 173 168 166 163 158 150 145 142 136 133 134 136 137 141 143 137 138 144 132
137 140 229 208 207 256 196 212 199 218 239 203 203 220 197 47 64 166 217 155 168 176 166 156 161 182 164 169 185 161 165 172 168 169 160 151 148 144 139 135 138 138 141 144 147 154 147 150 134
185 208 212 279 249 250 199 246 210 186 262 209 223 217 253 270 260 184 193 174 168 163 170 160 163 174 179 164 164 162 164 168 178 172 162 155 152 148 144 140 140 141 146 150 150 149 148 139 127
192 244 247 281 258 170 176 184 228 197 250 269 150 184 294 285 263 235 197 180 177 166 160 159 175 174 184 180 180 180 178 170 180 179 168 159 155 153 149 145 143 146 156 151 147 152 145 135 122
218 269 294 313 244 205 186 224 239 224 204 190 170 175 189 242 249 250 237 208 197 193 179 178 174 176 177 172 172 174 171 178 181 177 169 164 160 157 154 153 152 160 158 156 150 153 157 157 141
226 289 294 297 209 193 172 222 2 224 198 193 208 194 211 244 240 245 235 233 218 197 190 196 186 178 171 175 177 172 175 182 178 173 170 167 164 162 161 159 166 168 167 161 161 161 172 176 163
279 313 316 238 203 203 151 302 240 245 189 194 210 195 200 228 245 236 215 228 219 209 221 205 199 186 178 185 180 176 178 179 176 172 170 167 169 166 165 168 176 176 175 171 175 184 183 194 181
1 76 309 278 150 229 169 264 240 192 184 205 216 207 194 228 247 243 200 209 226 222 221 211 212 195 191 188 178 177 181 177 175 171 167 171 170 173 168 178 183 183 184 186 191 193 201 205 204
359 254 243 319 320 126 194 253 217 187 190 206 220 216 206 206 239 254 207 212 219 221 221 207 193 196 193 175 179 181 181 181 175 170 170 173 174 174 178 178 174 183 191 203 210 213 223 233 237
220 236 277 249 290 13 248 265 280 191 199 209 215 218 215 222 240 250 232 205 208 218 229 225 214 195 184 183 180 189 184 186 179 173 175 175 179 178 183 180 191 205 214 217 227 233 239 248 253
170 277 265 255 264 250 246 252 213 201 207 213 219 221 217 225 227 237 243 211 205 207 210 206 197 184 183 185 188 190 183 185 184 176 177 183 185 191 192 194 202 221 230 225 231 238 238 243 248
213 251 269 286 264 173 264 255 190 187 217 213 207 216 224 219 222 225 230 217 209 206 198 194 187 192 192 190 193 191 187 184 186 186 196 191 190 194 205 210 219 233 246 240 236 241 243 242 247
231 207 257 226 298 212 315 308 248 209 211 212 221 223 221 226 225 222 220 221 213 208 189 187 192 183 186 191 197 195 197 192 191 197 193 197 205 211 217 226 237 245 246 244 243 243 245 248 250
257 205 233 249 229 234 161 257 288 214 213 208 211 214 220 222 228 229 227 220 216 210 196 188 192 196 198 199 206 204 202 205 209 215 220 208 215 222 234 234 248 248 252 245 246 249 246 248 250
234 224 216 248 212 163 226 131 266 142 215 221 213 213 219 221 222 226 229 232 221 211 204 197 192 196 201 204 209 211 211 214 219 222 216 231 226 234 228 240 243 247 249 250 248 252 250 251 247
240 290 283 51 155 188 227 176 271 225 214 229 208 210 213 221 224 227 230 228 225 215 208 205 202 198 198 200 206 213 218 220 220 226 232 233 227 220 226 239 242 249 257 256 255 258 257 254 250
156 134 299 299 173 219 186 188 231 246 251 234 201 205 209 219 220 222 223 223 220 217 212 206 203 201 201 203 207 210 213 215 220 222 220 216 217 222 232 241 248 255 257 255 258 259 253 248 248
183 171 172 212 203 238 148 230 245 230 254 276 227 217 214 210 222 222 225 224 222 217 213 210 209 206 204 203 204 206 210 212 217 219 220 222 226 231 243 250 259 255 251 246 242 252 255 253 259
231 175 206 121 13 73 227 291 301 262 271 253 251 200 201 219 221 227 226 228 225 222 218 213 212 211 210 210 208 210 212 215 219 223 227 231 235 243 251 256 258 259 247 246 250 256 257 258 262
206 171 83 13 159 244 251 243 233 286 252 245 212 203 206 220 223 225 229 230 229 228 224 222 221 218 215 216 218 218 219 221 224 226 230 235 242 248 256 255 257 254 253 248 251 251 258 253 258
163 206 170 155 156 199 220 252 215 232 250 223 183 255 232 220 225 227 229 233 235 231 227 228 226 224 224 228 225 226 226 228 232 233 235 239 243 248 256 262 255 255 256 248 249 249 254 253 254
157 222 185 194 240 245 181 243 228 239 248 244 263 259 258 238 236 233 233 232 233 233 231 229 229 229 232 232 232 234 235 235 236 241 242 244 249 255 261 266 260 253 251 245 245 246 248 253 251
Wind_Speed_850mb
5 4 9 8 8 9 7 10 6 16 10 5 6 15 16 10 1 5 15 15 33 53 67 66 65 70 70 60 58 61 41 41 51 56 57 60 61 65 64 63 62 63 60 58 56 54 53 55 55
2 4 4 7 8 4 10 9 10 8 11 12 5 4 5 6 9 9 10 30 42 57 70 70 73 70 68 63 47 46 52 52 54 58 63 68 68 68 67 66 66 66 64 59 53 48 51 54 53
4 2 4 8 6 6 7 9 9 10 14 9 6 6 5 5 5 11 15 25 51 60 69 70 68 66 61 58 61 47 48 57 59 65 68 70 70 70 69 69 68 66 64 59 54 49 53 51 49
5 4 10 6 9 15 14 15 3 6 14 7 5 6 6 10 3 9 16 26 54 59 62 66 63 72 71 71 66 59 62 66 64 66 73 74 73 71 72 70 67 64 65 61 50 43 42 43 44
4 4 7 3 11 11 11 9 7 4 8 10 10 4 4 8 5 12 21 34 51 57 56 48 57 56 52 64 60 59 60 68 66 69 75 77 77 75 71 67 66 65 64 57 44 39 37 37 38
6 4 7 5 10 11 10 2 6 4 4 10 6 4 6 4 6 14 23 33 44 47 61 63 74 50 43 84 75 75 72 72 72 70 76 77 77 74 68 66 66 65 61 54 42 41 42 40 33
11 7 8 7 11 12 6 12 6 6 12 9 6 5 6 2 10 9 18 30 34 39 42 52 77 57 49 70 86 71 78 74 73 71 76 76 75 70 68 66 65 63 59 51 41 42 42 36 30
9 7 3 9 4 11 10 9 12 27 14 12 7 9 4 3 4 6 13 17 23 35 28 25 51 64 55 97 73 64 64 73 71 72 75 75 73 69 66 65 62 58 57 51 43 43 38 31 28
12 7 5 10 4 10 13 7 15 5 6 9 8 14 13 3 8 9 13 22 27 31 28 41 29 35 44 60 75 61 67 74 72 73 75 77 74 68 64 63 60 56 53 51 46 36 34 25 19
9 7 13 14 10 12 10 17 18 5 5 11 10 12 5 3 4 5 7 24 22 24 38 37 24 50 41 59 66 66 62 57 66 74 72 74 72 66 61 59 55 51 48 48 46 36 29 24 18
10 10 9 38 29 28 14 7 11 11 11 11 13 17 9 3 2 7 8 14 23 32 49 51 63 60 60 67 97 86 73 67 59 68 69 74 73 67 61 58 51 46 42 43 43 39 31 25 20
3 22 15 22 15 24 11 11 10 19 11 8 6 10 8 12 13 12 18 23 36 40 44 43 49 52 65 67 70 90 93 88 72 73 73 74 73 66 59 53 47 39 41 37 34 31 26 17 17
9 9 16 31 12 26 22 17 10 13 12 8 13 17 16 14 17 19 18 21 28 34 45 46 61 57 67 88 97 96 87 83 87 75 71 73 72 66 57 48 41 39 37 29 29 27 19 14 11
7 17 32 22 23 25 20 8 1 16 20 18 15 12 16 20 15 18 19 27 32 40 45 42 57 59 74 81 77 87 87 88 82 78 74 72 66 62 55 45 39 37 31 26 22 19 17 16 10
9 10 15 14 17 13 15 3 16 25 31 25 22 18 16 16 16 12 12 22 26 32 36 45 47 69 75 74 78 85 86 83 81 79 74 69 63 58 49 39 39 32 30 25 25 20 15 18 14
9 1 3 5 12 10 20 22 12 34 38 31 25 19 17 14 15 9 12 21 27 27 42 57 59 71 78 77 86 80 83 82 79 75 68 66 59 47 41 39 35 33 31 24 19 15 14 19 18
7 10 9 16 5 7 8 16 11 44 41 36 33 26 20 11 12 9 14 22 28 30 32 47 75 69 71 83 74 78 81 81 78 72 67 65 54 46 40 37 33 32 26 22 18 21 21 19 19
10 8 4 7 10 3 9 26 2 41 39 38 39 33 22 15 11 10 13 21 23 26 28 33 50 75 78 90 89 81 80 76 78 70 69 62 55 48 41 29 29 26 26 28 26 27 28 28 24
4 6 10 13 18 8 26 17 16 28 25 30 41 38 30 23 16 16 19 20 25 30 29 27 48 88 86 85 88 87 83 81 81 78 73 63 45 45 39 33 29 27 30 33 35 35 38 38 34
10 10 22 19 19 14 16 22 11 19 29 46 50 48 42 32 28 26 24 25 29 31 37 40 42 71 80 84 83 94 86 87 77 77 80 71 54 42 39 38 34 34 33 39 44 45 45 43 44
14 14 20 15 17 9 1 15 7 10 16 36 48 53 46 44 39 37 33 32 32 30 31 45 54 62 71 79 83 83 78 83 79 82 86 83 78 52 42 43 40 41 43 46 49 54 55 54 51
15 20 22 16 4 10 9 9 10 6 13 16 38 52 58 57 50 44 40 39 38 34 37 45 50 62 65 72 72 79 85 89 94 82 83 90 86 76 68 54 47 50 51 56 57 58 62 61 57
19 11 18 19 13 6 4 4 13 7 11 22 30 57 67 68 62 55 50 45 38 37 40 44 47 54 61 65 72 80 87 91 91 86 92 84 93 87 71 60 57 47 53 58 59 59 65 67 58
20 9 6 0 8 5 11 11 10 10 15 11 25 52 71 73 71 64 54 54 47 44 46 49 54 56 61 68 72 75 77 90 94 92 98 98 91 90 82 73 65 56 61 63 61 61 69 65 61
9 4 5 6 1 11 10 5 15 16 23 24 24 54 73 78 77 75 73 70 64 60 56 58 63 68 69 72 78 79 80 81 84 79 81 82 86 90 86 78 73 74 72 62 59 63 64 64 59
13 18 11 12 7 9 2 10 11 15 24 26 31 53 67 71 81 85 85 79 75 72 70 69 68 72 77 78 80 79 79 82 81 80 81 86 90 87 80 73 71 73 70 57 54 57 62 48 52
8 10 14 11 6 4 8 12 14 13 19 23 36 34 59 72 82 89 92 90 86 84 83 82 81 80 84 82 81 84 86 89 90 88 88 86 83 85 84 81 73 73 62 66 63 63 55 50 57
14 10 4 4 9 8 5 7 11 16 11 10 13 29 59 71 74 82 88 94 95 92 88 86 89 93 92 93 94 95 94 94 94 92 90 87 81 84 85 82 81 77 64 66 61 60 52 59 59
4 6 4 6 8 12 4 11 14 16 15 9 3 8 33 56 69 76 84 91 94 93 95 95 96 97 96 101 103 102 101 97 99 97 92 91 85 86 89 81 81 86 76 75 65 56 56 61 55
7 12 17 11 8 4 7 16 10 17 12 13 10 6 17 37 62 73 72 80 88 94 97 99 102 105 105 107 105 107 106 102 103 102 99 84 89 79 91 80 89 87 91 77 68 58 59 60 59
Wind_Direction_850mb
59 21 348 21 43 58 276 264 255 310 328 347 14 127 137 142 206 174 165 185 182 177 176 178 177 170 167 168 180 173 178 183 172 167 158 150 146 141 140 137 133 132 130 128 124 121 115 108 98
50 12 28 71 81 24 277 263 302 267 302 122 50 48 131 143 135 138 151 168 182 180 179 180 179 173 170 166 167 174 174 179 168 164 156 148 143 140 138 134 134 131 129 126 123 118 111 108 97
104 118 63 90 122 198 243 235 281 293 34 338 325 351 120 115 146 178 149 172 179 182 181 183 182 179 173 172 175 177 178 177 166 163 154 146 143 140 136 134 132 131 128 124 120 115 110 107 100
104 109 76 99 235 249 221 265 288 323 295 347 165 247 124 147 158 192 174 185 185 189 184 190 198 204 200 181 175 170 191 175 167 162 152 147 142 138 137 135 133 133 127 123 121 117 113 112 105
110 115 63 324 254 254 243 213 190 340 332 308 316 297 115 195 167 204 192 196 200 191 194 200 202 189 202 190 186 179 182 174 165 160 151 147 142 140 136 133 133 133 129 124 120 115 120 121 111
93 94 50 290 256 268 302 219 68 340 280 251 215 280 228 335 266 214 206 201 196 203 215 222 204 204 229 217 191 182 177 171 164 159 153 146 143 139 134 132 132 133 131 127 126 119 119 127 118
124 88 205 246 270 310 180 98 121 221 249 240 202 223 206 257 301 203 202 207 205 211 215 214 208 210 211 173 169 165 176 168 163 159 153 148 143 137 134 132 133 138 137 133 128 119 121 124 120
151 98 149 239 249 279 197 151 161 206 222 180 191 242 268 344 8 118 176 206 201 195 191 180 190 196 167 179 152 162 164 167 164 158 155 148 143 139 135 133 132 135 139 138 133 125 121 118 112
178 77 225 254 244 287 162 183 215 230 257 200 232 247 266 103 103 125 175 171 184 193 179 168 155 161 137 127 144 155 173 168 166 163 158 150 145 142 136 133 134 136 137 141 143 137 138 144 132
137 140 229 208 207 256 196 212 199 218 239 203 203 220 197 47 64 166 217 155 168 176 166 156 161 182 164 169 185 161 165 172 168 169 160 151 148 144 139 135 138 138 141 144 147 154 147 150 134
185 208 212 279 249 250 199 246 210 186 262 209 223 217 253 270 260 184 193 174 168 163 170 160 163 174 179 164 164 162 164 168 178 172 162 155 152 148 144 140 140 141 146 150 150 149 148 139 127
192 244 247 281 258 170 176 184 228 197 250 269 150 184 294 285 263 235 197 180 177 166 160 159 175 174 184 180 180 180 178 170 180 179 168 159 155 153 149 145 143 146 156 151 147 152 145 135 122
218 269 294 313 244 205 186 224 239 224 204 190 170 175 189 242 249 250 237 208 197 193 179 178 174 176 177 172 172 174 171 178 181 177 169 164 160 157 154 153 152 160 158 156 150 153 157 157 141
226 289 294 297 209 193 172 222 2 224 198 193 208 194 211 244 240 245 235 233 218 197 190 196 186 178 171 175 177 172 175 182 178 173 170 167 164 162 161 159 166 168 167 161 161 161 172 176 163
279 313 316 238 203 203 151 302 240 245 189 194 210 195 200 228 245 236 215 228 219 209 221 205 199 186 178 185 180 176 178 179 176 172 170 167 169 166 165 168 176 176 175 171 175 184 183 194 181
1 76 309 278 150 229 169 264 240 192 184 205 216 207 194 228 247 243 200 209 226 222 221 211 212 195 191 188 178 177 181 177 175 171 167 171 170 173 168 178 183 183 184 186 191 193 201 205 204
359 254 243 319 320 126 194 253 217 187 190 206 220 216 206 206 239 254 207 212 219 221 221 207 193 196 193 175 179 181 181 181 175 170 170 173 174 174 178 178 174 183 191 203 210 213 223 233 237
220 236 277 249 290 13 248 265 280 191 199 209 215 218 215 222 240 250 232 205 208 218 229 225 214 195 184 183 180 189 184 186 179 173 175 175 179 178 183 180 191 205 214 217 227 233 239 248 253
170 277 265 255 264 250 246 252 213 201 207 213 219 221 217 225 227 237 243 211 205 207 210 206 197 184 183 185 188 190 183 185 184 176 177 183 185 191 192 194 202 221 230 225 231 238 238 243 248
213 251 269 286 264 173 264 255 190 187 217 213 207 216 224 219 222 225 230 217 209 206 198 194 187 192 192 190 193 191 187 184 186 186 196 191 190 194 205 210 219 233 246 240 236 241 243 242 247
231 207 257 226 298 212 315 308 248 209 211 212 221 223 221 226 225 222 220 221 213 208 189 187 192 183 186 191 197 195 197 192 191 197 193 197 205 211 217 226 237 245 246 244 243 243 245 248 250
257 205 233 249 229 234 161 257 288 214 213 208 211 214 220 222 228 229 227 220 216 210 196 188 192 196 198 199 206 204 202 205 209 215 220 208 215 222 234 234 248 248 252 245 246 249 246 248 250
234 224 216 248 212 163 226 131 266 142 215 221 213 213 219 221 222 226 229 232 221 211 204 197 192 196 201 204 209 211 211 214 219 222 216 231 226 234 228 240 243 247 249 250 248 252 250 251 247
240 290 283 51 155 188 227 176 271 225 214 229 208 210 213 221 224 227 230 228 225 215 208 205 202 198 198 200 206 213 218 220 220 226 232 233 227 220 226 239 242 249 257 256 255 258 257 254 250
156 134 299 299 173 219 186 188 231 246 251 234 201 205 209 219 220 222 223 223 220 217 212 206 203 201 201 203 207 210 213 215 220 222 220 216 217 222 232 241 248 255 257 255 258 259 253 248 248
183 171 172 212 203 238 148 230 245 230 254 276 227 217 214 210 222 222 225 224 222 217 213 210 209 206 204 203 204 206 210 212 217 219 220 222 226 231 243 250 259 255 251 246 242 252 255 253 259
231 175 206 121 13 73 227 291 301 262 271 253 251 200 201 219 221 227 226 228 225 222 218 213 212 211 210 210 208 210 212 215 219 223 227 231 235 243 251 256 258 259 247 246 250 256 257 258 262
206 171 83 13 159 244 251 243 233 286 252 245 212 203 206 220 223 225 229 230 229 228 224 222 221 218 215 216 218 218 219 221 224 226 230 235 242 248 256 255 257 254 253 248 251 251 258 253 258
163 206 170 155 156 199 220 252 215 232 250 223 183 255 232 220 225 227 229 233 235 231 227 228 226 224 224 228 225 226 226 228 232 233 235 239 243 248 256 262 255 255 256 248 249 249 254 253 254
157 222 185 194 240 245 181 243 228 239 248 244 263 259 258 238 236 233 233 232 233 233 231 229 229 229 232 232 232 234 235 235 236 241 242 244 249 255 261 266 260 253 251 245 245 246 248 253 251